[[{"header":{"parameterUnit":"m.s-1","parameterCategory":1,"la1":30.2991,"la2":30.254,"lo1":-89.0895,"lo2":-89.0444,"dx":0.0017,"dy":0.0017,"nx":28,"ny":28,"refTime":"2023-01-27T09:00:00:Z","depth":0,"parameterNumber":2,"parameterNumberName":"U-component_of_WINDS"},"data":[0,0,0,0,0,0,0,0,0,0,0,0,0,0,0,0,0,0,0,0,0,0,0,0,0,0,0,0,0,0,0,0,0,0,0,0,0,0,0,0,0,0,0,0,0,0,0,0,0,0,0,0,0,0,0,0,0,0,-1.2819,-1.2819,0,-1.2828,-1.2828,-1.2828,-1.2783,-1.2782,-1.2781,-1.278,-1.279,-1.2791,-1.2793,0,0,0,0,0,0,0,0,0,0,0,0,0,-1.2766,-1.2767,-1.2819,-1.2819,-1.2819,-1.2828,-1.2828,-1.2828,-1.2784,-1.2782,-1.278,-1.2779,-1.2789,-1.2791,-1.2793,0,0,0,0,0,0,0,0,0,0,0,0,0,-1.2783,-1.2767,-1.2819,-1.2798,-1.2796,-1.2828,-1.2828,-1.2828,-1.2784,-1.2782,-1.278,-1.2778,-1.2789,-1.2791,-1.2793,-1.2845,0,0,-1.28,-1.2801,0,0,0,0,0,0,0,0,-1.2782,-1.2785,-1.2801,-1.2799,-1.2798,-1.2802,-1.2813,-1.2834,-1.2784,-1.2789,-1.278,-1.2777,-1.2796,-1.2797,-1.2803,-1.2846,-1.2846,-1.28,-1.2801,-1.2802,-1.2803,0,0,0,0,0,0,0,-1.2781,-1.2785,-1.2822,-1.2801,-1.2799,-1.2789,-1.2789,-1.2816,-1.2803,-1.2788,-1.2785,-1.2786,-1.2794,-1.2801,-1.2803,-1.2846,-1.28,-1.2802,-1.2803,-1.2804,-1.2933,-1.2935,0,0,0,0,0,0,-1.2782,-1.2784,-1.2822,-1.2823,-1.2785,-1.2791,-1.2792,-1.2803,-1.2802,-1.28,-1.2788,-1.2784,-1.2798,-1.28,-1.2803,-1.2865,-1.2802,-1.2804,-1.2806,-1.2931,-1.2934,-1.2936,0,0,0,0,0,0,-1.2781,-1.2786,-1.2822,-1.2802,-1.2806,-1.2794,-1.2807,-1.2804,-1.2811,-1.2802,-1.28,-1.2797,-1.2797,-1.28,-1.2835,-1.2865,-1.2805,-1.2807,-1.2929,-1.2932,-1.2935,-1.2988,0,0,0,0,0,0,-1.278,-1.2786,-1.2805,-1.2803,-1.2807,-1.2853,-1.2809,-1.2806,-1.2814,-1.281,-1.281,-1.2809,-1.2796,-1.2832,-1.2837,-1.2866,-1.2809,-1.2926,-1.293,-1.2934,-1.2984,-1.2993,-1.3001,0,0,0,0,0,-1.2778,-1.282,-1.2806,-1.2811,-1.2831,-1.2855,-1.2857,-1.2841,-1.2817,-1.2836,-1.2831,-1.2809,-1.2861,-1.2836,-1.2842,-1.2872,-1.2924,-1.2929,-1.2934,-1.298,-1.2991,-1.3,0,0,0,0,0,0,-1.2826,-1.2819,-1.2804,-1.2846,-1.2852,-1.2847,-1.2871,-1.2853,-1.2865,-1.286,-1.284,-1.2841,-1.288,-1.2879,-1.2852,-1.2923,-1.2888,-1.2894,-1.2922,-1.2932,-1.294,-1.294,-1.2811,0,0,0,0,0,-1.2841,-1.2861,-1.2854,-1.2892,-1.2895,-1.2883,-1.2893,-1.288,-1.2885,-1.2887,-1.2884,-1.289,-1.2908,-1.292,-1.2936,-1.2984,-1.2984,-1.3007,-1.3016,-1.3023,-1.3028,-1.3054,-1.3065,-1.2952,-1.2952,-1.2952,0,0,-1.2873,-1.2872,-1.2886,-1.2902,-1.2904,-1.2926,-1.2885,-1.2909,-1.2925,-1.2891,-1.2924,-1.2922,-1.2928,-1.297,-1.2988,-1.2971,-1.306,-1.3029,-1.3034,-1.3036,-1.306,-1.3071,-1.3081,-1.2955,-1.2954,-1.2954,0,0,-1.2943,-1.2944,-1.2975,-1.2979,-1.2983,-1.2975,-1.2983,-1.2982,-1.298,-1.3012,-1.2987,-1.3006,-1.3037,-1.3042,-1.3049,-1.3121,-1.3101,-1.3127,-1.3171,-1.3197,-1.3206,-1.3214,-1.324,-1.325,-1.3133,-1.3133,-1.3133,0,-1.2982,-1.3013,-1.2994,-1.302,-1.3028,-1.2998,-1.3031,-1.3035,-1.3045,-1.3052,-1.3032,-1.307,-1.3072,-1.3115,-1.3133,-1.3139,-1.3148,-1.3127,-1.3206,-1.3214,-1.3221,-1.3246,-1.3256,-1.3136,-1.3136,-1.3135,-1.3135,0,-1.3061,-1.3083,-1.3108,-1.3118,-1.3129,-1.3159,-1.3146,-1.3159,-1.3146,-1.314,-1.3174,-1.3175,-1.3191,-1.32,-1.3187,-1.3242,-1.3231,-1.3209,-1.3174,-1.3235,-1.3258,-1.3268,-1.314,-1.3139,-1.3138,-1.3138,0,0,-1.316,-1.316,-1.317,-1.3174,-1.3177,-1.3194,-1.3223,-1.3238,-1.325,-1.3259,-1.3282,-1.331,-1.3289,-1.3297,-1.3284,-1.3307,-1.3366,-1.3282,-1.3282,-1.3298,-1.3427,-1.3444,-1.3456,-1.3353,-1.3354,-1.3356,-1.3427,0,-1.3228,-1.3276,-1.3261,-1.331,-1.333,-1.3302,-1.3327,-1.3333,-1.3328,-1.3346,-1.3341,-1.3361,-1.3332,-1.3337,-1.3358,-1.3354,-1.3392,-1.3349,-1.3375,-1.3376,-1.3375,-1.3468,-1.3485,-1.3553,-1.3436,-1.3438,-1.3439,0,-1.3314,-1.3325,-1.3376,-1.3377,-1.3385,-1.3408,-1.3421,-1.3438,-1.3443,-1.3439,-1.3448,-1.3431,-1.346,-1.3425,-1.3465,-1.3436,-1.3446,-1.3446,-1.3448,-1.345,-1.3411,-1.3473,-1.3574,-1.3584,-1.3453,-1.3452,-1.3451,0,-1.3382,-1.341,-1.3444,-1.3449,-1.345,-1.3467,-1.3468,-1.3472,-1.3483,-1.3495,-1.3502,-1.3517,-1.3525,-1.3538,-1.3526,-1.3502,-1.3569,-1.3532,-1.3566,-1.3567,-1.3581,-1.3581,-1.3686,-1.3588,-1.3588,-1.3587,-1.3587,0,-1.3459,-1.3492,-1.3475,-1.3496,-1.3532,-1.3514,-1.3551,-1.3549,-1.3553,-1.3574,-1.3551,-1.3571,-1.3554,-1.3573,-1.3564,-1.3599,-1.3603,-1.3601,-1.3598,-1.3603,-1.3603,-1.3609,-1.3604,-1.359,-1.3589,-1.3589,-1.3588,0,-1.3541,-1.3531,-1.3566,-1.3565,-1.3565,-1.3592,-1.3591,-1.3611,-1.3605,-1.3632,-1.3638,-1.3629,-1.3651,-1.364,-1.3662,-1.3656,-1.3702,-1.3693,-1.37,-1.3697,-1.3732,-1.3729,-1.3845,-1.386,-1.3752,-1.3753,-1.3754,0,-1.3591,-1.3616,-1.3617,-1.3629,-1.3632,-1.3652,-1.3663,-1.3647,-1.366,-1.3669,-1.3688,-1.3707,-1.3722,-1.3758,-1.3754,-1.3771,-1.3763,-1.3802,-1.3765,-1.377,-1.3764,-1.3763,-1.3765,-1.3809,-1.3811,-1.3812,-1.3813,0,-1.3682,-1.3676,-1.3692,-1.3707,-1.372,-1.3731,-1.374,-1.3752,-1.3737,-1.3752,-1.3773,-1.3785,-1.3808,-1.3828,-1.3843,-1.3845,-1.3827,-1.3824,-1.3833,-1.3839,-1.3842,-1.3841,-1.372,-1.3822,-1.3821,-1.382,-1.382,-1.3819,-1.375,-1.3771,-1.3775,-1.3794,-1.3799,-1.3809,-1.3828,-1.3824,-1.3842,-1.3859,-1.3849,-1.3875,-1.3881,-1.3899,-1.3904,-1.3925,-1.3909,-1.3922,-1.3925,-1.3928,-1.3933,-1.3839,-1.3927,-1.3927,-1.3927,-1.3927,-1.3926,0,-1.384,-1.3842,-1.386,-1.3873,-1.3888,-1.3869,-1.3879,-1.3893,-1.3915,-1.3923,-1.3938,-1.3963,-1.3983,-1.3981,-1.3999,-1.4015,-1.4008,-1.4021,-1.4019,-1.402,-1.3946,-1.3937,-1.4027,-1.4027,-1.4027,-1.4027,-1.4027,-1.4027,-1.3889,-1.3923,-1.3918,-1.3955,-1.3956,-1.3981,-1.3988,-1.3997,-1.4002,-1.4032,-1.4047,-1.4046,-1.405,-1.4068,-1.4086,-1.4085,-1.4093,-1.4109,-1.4105,-1.4036,-1.4026,-1.4016,-1.4007,-1.4111,-1.4111,-1.4178,-1.4179,-1.4179]},{"header":{"parameterUnit":"m.s-1","parameterCategory":1,"la1":30.2991,"la2":30.254,"lo1":-89.0895,"lo2":-89.0444,"dx":0.0017,"dy":0.0017,"nx":28,"ny":28,"refTime":"2023-01-27T09:00:00:Z","depth":0,"parameterNumber":3,"parameterNumberName":"V-component_of_WINDS"},"data":[0,0,0,0,0,0,0,0,0,0,0,0,0,0,0,0,0,0,0,0,0,0,0,0,0,0,0,0,0,0,0,0,0,0,0,0,0,0,0,0,0,0,0,0,0,0,0,0,0,0,0,0,0,0,0,0,0,0,1.9982,1.9982,0,1.998,1.998,1.998,1.9974,1.9973,1.9973,1.9973,1.997,1.997,1.997,0,0,0,0,0,0,0,0,0,0,0,0,0,1.9981,1.9981,1.9982,1.9982,1.9982,1.998,1.998,1.998,1.9974,1.9973,1.9973,1.9973,1.997,1.997,1.997,0,0,0,0,0,0,0,0,0,0,0,0,0,1.998,1.9981,1.9982,1.9979,1.9978,1.998,1.998,1.998,1.9974,1.9973,1.9973,1.9973,1.997,1.997,1.997,1.9975,0,0,1.9971,1.9971,0,0,0,0,0,0,0,0,1.998,1.998,1.9979,1.9979,1.9979,1.9977,1.9978,1.9978,1.9974,1.9975,1.9973,1.9973,1.9973,1.9972,1.9972,1.9975,1.9974,1.9971,1.9971,1.9971,1.9971,0,0,0,0,0,0,0,1.998,1.998,1.9981,1.9979,1.9979,1.9977,1.9977,1.9978,1.9975,1.9975,1.9975,1.9975,1.9972,1.9972,1.9972,1.9974,1.9971,1.9971,1.9971,1.9971,1.9979,1.9979,0,0,0,0,0,0,1.9981,1.998,1.9981,1.9981,1.9979,1.9977,1.9977,1.9978,1.9975,1.9975,1.9975,1.9974,1.9972,1.9972,1.9972,1.9976,1.9971,1.9971,1.9971,1.9979,1.9979,1.9979,0,0,0,0,0,0,1.9981,1.9981,1.9981,1.9981,1.9981,1.9978,1.9978,1.9978,1.9978,1.9975,1.9974,1.9975,1.9972,1.9972,1.9974,1.9976,1.9971,1.9971,1.9979,1.9979,1.9979,1.9985,0,0,0,0,0,0,1.9981,1.9981,1.9983,1.9981,1.9981,1.9983,1.9978,1.9978,1.9978,1.9977,1.9975,1.9975,1.9972,1.9974,1.9974,1.9976,1.9971,1.9978,1.9979,1.9979,1.9985,1.9986,1.9987,0,0,0,0,0,1.9981,1.9985,1.9983,1.9983,1.9983,1.9984,1.9984,1.9981,1.9978,1.998,1.9978,1.9975,1.9976,1.9974,1.9974,1.9977,1.9978,1.9979,1.9979,1.9985,1.9986,1.9987,0,0,0,0,0,0,1.9987,1.9984,1.9982,1.9986,1.9985,1.9983,1.9985,1.9982,1.9982,1.9981,1.9977,1.9977,1.9979,1.9978,1.9976,1.998,1.9977,1.9977,1.9981,1.9982,1.9983,1.9983,1.9971,0,0,0,0,0,1.9989,1.999,1.9988,1.9991,1.999,1.9988,1.9988,1.9986,1.9985,1.9984,1.9982,1.9981,1.9981,1.9982,1.9982,1.9985,1.9984,1.9987,1.9987,1.9988,1.9988,1.9989,1.999,1.9981,1.9981,1.9981,0,0,1.9993,1.9991,1.9992,1.9992,1.9991,1.9992,1.9987,1.9989,1.9989,1.9984,1.9986,1.9985,1.9983,1.9985,1.9986,1.9985,1.9991,1.9989,1.9989,1.9989,1.999,1.9991,1.9992,1.9981,1.9981,1.9981,0,0,2.0,1.9999,2.0001,2.0001,1.9999,1.9997,1.9998,1.9996,1.9995,1.9996,1.9992,1.9993,1.9993,1.9992,1.9992,1.9998,1.9995,1.9998,2.0002,2.0003,2.0004,2.0005,2.0007,2.0007,1.9999,1.9999,1.9999,0,2.0004,2.0006,2.0003,2.0004,2.0004,2.0,2.0002,2.0001,2.0,2.0,1.9998,1.9998,1.9997,1.9998,2.0,2.0,2.0,1.9998,2.0004,2.0005,2.0005,2.0007,2.0008,1.9999,1.9999,1.9999,1.9999,0,2.0011,2.0012,2.0014,2.0013,2.0013,2.0015,2.0012,2.0012,2.001,2.0008,2.0009,2.0008,2.0007,2.0007,2.0005,2.0009,2.0008,2.0005,2.0001,2.0007,2.0008,2.0009,2.0,1.9999,1.9999,1.9999,0,0,2.0022,2.0019,2.002,2.0019,2.0017,2.0018,2.0019,2.0019,2.0019,2.0018,2.0019,2.0019,2.0017,2.0016,2.0014,2.0015,2.0019,2.0012,2.0012,2.0013,2.0022,2.0024,2.0024,2.0017,2.0017,2.0017,2.0022,0,2.0029,2.0031,2.0028,2.0031,2.0031,2.0027,2.0028,2.0027,2.0025,2.0025,2.0023,2.0023,2.002,2.002,2.0021,2.0018,2.0021,2.0018,2.0017,2.0017,2.0017,2.0025,2.0027,2.0032,2.0023,2.0023,2.0023,0,2.0036,2.0036,2.0038,2.0036,2.0036,2.0037,2.0036,2.0036,2.0034,2.0033,2.0032,2.003,2.003,2.0027,2.0028,2.0026,2.0025,2.0024,2.0024,2.0024,2.002,2.0025,2.0033,2.0034,2.0024,2.0024,2.0024,0,2.0043,2.0043,2.0045,2.0044,2.0041,2.0042,2.0041,2.0039,2.0039,2.0038,2.0038,2.0037,2.0036,2.0035,2.0032,2.003,2.0033,2.003,2.0032,2.0032,2.0032,2.0032,2.004,2.0033,2.0033,2.0033,2.0033,0,2.005,2.0052,2.0048,2.0048,2.005,2.0047,2.0048,2.0047,2.0045,2.0045,2.0042,2.0042,2.0038,2.0038,2.0036,2.0036,2.0036,2.0035,2.0034,2.0035,2.0035,2.0034,2.0034,2.0033,2.0033,2.0033,2.0033,0,2.0058,2.0055,2.0057,2.0054,2.0053,2.0054,2.0052,2.0052,2.005,2.0051,2.0051,2.0047,2.0047,2.0044,2.0042,2.0041,2.0042,2.0041,2.0043,2.0042,2.0044,2.0044,2.0052,2.0052,2.0045,2.0045,2.0045,0,2.0062,2.0063,2.0061,2.0061,2.006,2.006,2.0059,2.0056,2.0056,2.0054,2.0054,2.0054,2.0053,2.0052,2.0049,2.0048,2.0047,2.005,2.0047,2.0047,2.0046,2.0046,2.0046,2.005,2.005,2.005,2.005,0,2.007,2.0069,2.0068,2.0067,2.0067,2.0066,2.0065,2.0065,2.0062,2.0061,2.0061,2.006,2.0059,2.0058,2.0056,2.0055,2.0052,2.0051,2.0052,2.0052,2.0053,2.0052,2.0044,2.0051,2.0051,2.0051,2.0051,2.0051,2.0076,2.0077,2.0075,2.0074,2.0073,2.0072,2.0072,2.007,2.007,2.0069,2.0067,2.0066,2.0064,2.0062,2.006,2.006,2.0058,2.0059,2.0059,2.0059,2.0059,2.0054,2.006,2.0059,2.0059,2.0059,2.0059,0,2.0083,2.0082,2.0082,2.008,2.008,2.0077,2.0076,2.0075,2.0075,2.0074,2.0073,2.0072,2.0071,2.0068,2.0067,2.0067,2.0065,2.0066,2.0066,2.0066,2.0061,2.006,2.0067,2.0067,2.0067,2.0067,2.0067,2.0067,2.0087,2.0088,2.0086,2.0086,2.0085,2.0084,2.0084,2.0082,2.0081,2.008,2.0079,2.0078,2.0075,2.0074,2.0073,2.0072,2.0071,2.0073,2.0071,2.0067,2.0066,2.0065,2.0065,2.0073,2.0073,2.0076,2.0076,2.0076]}]]